Time,TemperatureF,DewpointF,PressureIn,WindDirection,WindDirectionDegrees,WindSpeedMPH,WindSpeedGustMPH,Humidity,HourlyPrecipIn,Conditions,Clouds,dailyrainin,SoftwareType,DateUTC
2013-05-17 00:03:00,73.0,-99.9,29.99,SSE,161,17.0,21.0,-999,-99.99,,,-99.99,,2013-05-17 05:03:00,
2013-05-17 00:14:00,73.0,-99.9,29.99,SSE,156,15.0,19.0,-999,-99.99,,,-99.99,,2013-05-17 05:14:00,
2013-05-17 00:22:00,73.0,-99.9,29.99,SSE,156,15.0,18.0,-999,-99.99,,,-99.99,,2013-05-17 05:22:00,
2013-05-17 00:32:00,73.0,-99.9,29.99,SSE,156,14.0,17.0,-999,-99.99,,,-99.99,,2013-05-17 05:32:00,
2013-05-17 00:43:00,73.0,-99.9,29.98,SSE,160,15.0,19.0,-999,-99.99,,,-99.99,,2013-05-17 05:43:00,
2013-05-17 00:52:00,73.0,-99.9,29.98,SSE,163,16.0,19.0,-999,-99.99,,,-99.99,,2013-05-17 05:52:00,
2013-05-17 01:02:00,73.0,-99.9,29.97,SSE,164,16.0,20.0,-999,-99.99,,,-99.99,,2013-05-17 06:02:00,
2013-05-17 01:11:00,73.0,-99.9,29.97,SSE,161,16.0,19.0,-999,-99.99,,,-99.99,,2013-05-17 06:11:00,
2013-05-17 01:22:00,73.0,-99.9,29.97,SSE,165,18.0,22.0,-999,-99.99,,,-99.99,,2013-05-17 06:22:00,
2013-05-17 01:32:00,73.0,-99.9,29.97,SSE,164,17.0,19.0,-999,-99.99,,,-99.99,,2013-05-17 06:32:00,
2013-05-17 01:42:00,73.0,-99.9,29.97,SSE,165,17.0,20.0,-999,-99.99,,,-99.99,,2013-05-17 06:42:00,
2013-05-17 01:52:00,73.0,-99.9,29.97,North,-999,-999.0,-999.0,-999,-99.99,,,-99.99,,2013-05-17 06:52:00,
2013-05-17 02:03:00,73.0,-99.9,29.97,SSE,165,14.0,16.0,-999,-99.99,,,-99.99,,2013-05-17 07:03:00,
2013-05-17 02:11:00,73.0,-99.9,29.97,SSE,164,15.0,18.0,-999,-99.99,,,-99.99,,2013-05-17 07:11:00,
2013-05-17 02:21:00,73.0,-99.9,29.97,SSE,165,14.0,17.0,-999,-99.99,,,-99.99,,2013-05-17 07:21:00,
2013-05-17 02:32:00,73.0,-99.9,29.97,SSE,165,14.0,17.0,-999,-99.99,,,-99.99,,2013-05-17 07:32:00,
2013-05-17 02:43:00,73.0,-99.9,29.97,SSE,168,15.0,18.0,-999,-99.99,,,-99.99,,2013-05-17 07:43:00,
2013-05-17 02:53:00,73.0,-99.9,29.97,SSE,166,15.0,17.0,-999,-99.99,,,-99.99,,2013-05-17 07:53:00,
2013-05-17 03:03:00,73.0,-99.9,29.97,SSE,164,12.0,16.0,-999,-99.99,,,-99.99,,2013-05-17 08:03:00,
2013-05-17 03:12:00,73.0,-99.9,29.97,SSE,161,12.0,16.0,-999,-99.99,,,-99.99,,2013-05-17 08:12:00,
2013-05-17 03:23:00,73.0,-99.9,29.97,North,-999,-999.0,-999.0,-999,-99.99,,,-99.99,,2013-05-17 08:23:00,
2013-05-17 03:34:00,73.0,-99.9,29.97,SSE,161,12.0,15.0,-999,-99.99,,,-99.99,,2013-05-17 08:34:00,
2013-05-17 03:43:00,73.0,-99.9,29.97,SSE,165,12.0,14.0,-999,-99.99,,,-99.99,,2013-05-17 08:43:00,
2013-05-17 03:52:00,73.0,-99.9,29.97,SSE,165,11.0,13.0,-999,-99.99,,,-99.99,,2013-05-17 08:52:00,
2013-05-17 04:02:00,73.0,-99.9,29.97,SSE,163,12.0,14.0,-999,-99.99,,,-99.99,,2013-05-17 09:02:00,
2013-05-17 04:12:00,73.0,-99.9,29.97,SSE,163,11.0,12.0,-999,-99.99,,,-99.99,,2013-05-17 09:12:00,
2013-05-17 04:23:00,73.0,-99.9,29.97,SSE,161,12.0,14.0,-999,-99.99,,,-99.99,,2013-05-17 09:23:00,
2013-05-17 04:33:00,73.0,-99.9,29.97,SSE,163,11.0,13.0,-999,-99.99,,,-99.99,,2013-05-17 09:33:00,
2013-05-17 04:42:00,73.0,-99.9,29.97,SSE,163,11.0,14.0,-999,-99.99,,,-99.99,,2013-05-17 09:42:00,
2013-05-17 04:53:00,73.0,-99.9,29.97,North,-999,-999.0,-999.0,-999,-99.99,,,-99.99,,2013-05-17 09:53:00,
2013-05-17 05:03:00,73.0,-99.9,29.97,SSE,164,11.0,13.0,-999,-99.99,,,-99.99,,2013-05-17 10:03:00,
2013-05-17 05:12:00,73.0,-99.9,29.97,SSE,160,11.0,13.0,-999,-99.99,,,-99.99,,2013-05-17 10:12:00,
2013-05-17 05:23:00,73.0,-99.9,29.98,North,-999,-999.0,-999.0,-999,-99.99,,,-99.99,,2013-05-17 10:23:00,
2013-05-17 05:33:00,73.0,-99.9,29.98,SSE,161,11.0,14.0,-999,-99.99,,,-99.99,,2013-05-17 10:33:00,
2013-05-17 05:42:00,73.0,-99.9,29.98,SSE,162,12.0,14.0,-999,-99.99,,,-99.99,,2013-05-17 10:42:00,
2013-05-17 05:54:00,73.0,-99.9,29.98,North,-999,-999.0,-999.0,-999,-99.99,,,-99.99,,2013-05-17 10:54:00,
2013-05-17 06:02:00,73.0,-99.9,29.98,SSE,163,11.0,13.0,-999,-99.99,,,-99.99,,2013-05-17 11:02:00,
2013-05-17 06:12:00,73.0,-99.9,29.99,SSE,161,9.0,11.0,-999,-99.99,,,-99.99,,2013-05-17 11:12:00,
2013-05-17 06:23:00,73.0,-99.9,30.00,North,-999,-999.0,-999.0,-999,-99.99,,,-99.99,,2013-05-17 11:23:00,
2013-05-17 06:34:00,73.0,-99.9,30.00,SSE,164,10.0,12.0,-999,-99.99,,,-99.99,,2013-05-17 11:34:00,
2013-05-17 06:42:00,73.0,-99.9,30.00,SSE,162,10.0,12.0,-999,-99.99,,,-99.99,,2013-05-17 11:42:00,
2013-05-17 06:53:00,73.0,-99.9,30.01,SSE,162,10.0,12.0,-999,-99.99,,,-99.99,,2013-05-17 11:53:00,
2013-05-17 07:03:00,73.0,-99.9,30.01,SSE,163,9.0,10.0,-999,-99.99,,,-99.99,,2013-05-17 12:03:00,
2013-05-17 07:12:00,73.0,-99.9,30.01,SSE,161,10.0,13.0,-999,-99.99,,,-99.99,,2013-05-17 12:12:00,
2013-05-17 07:23:00,73.0,-99.9,30.01,North,-999,-999.0,-999.0,-999,-99.99,,,-99.99,,2013-05-17 12:23:00,
2013-05-17 07:33:00,73.0,-99.9,30.01,SSE,157,10.0,12.0,-999,-99.99,,,-99.99,,2013-05-17 12:33:00,
2013-05-17 07:43:00,73.0,-99.9,30.01,North,-999,-999.0,-999.0,-999,-99.99,,,-99.99,,2013-05-17 12:43:00,
2013-05-17 07:53:00,73.0,-99.9,30.01,North,-999,-999.0,-999.0,-999,-99.99,,,-99.99,,2013-05-17 12:53:00,
2013-05-17 08:04:00,73.0,-99.9,30.01,SSE,161,11.0,15.0,-999,-99.99,,,-99.99,,2013-05-17 13:04:00,
2013-05-17 08:12:00,73.0,-99.9,30.01,SSE,162,12.0,14.0,-999,-99.99,,,-99.99,,2013-05-17 13:12:00,
2013-05-17 08:23:00,73.0,-99.9,30.02,SSE,168,11.0,13.0,-999,-99.99,,,-99.99,,2013-05-17 13:23:00,
2013-05-17 08:33:00,73.0,-99.9,30.02,SSE,168,12.0,14.0,-999,-99.99,,,-99.99,,2013-05-17 13:33:00,
2013-05-17 08:42:00,74.0,-99.9,30.02,SSE,167,13.0,15.0,-999,-99.99,,,-99.99,,2013-05-17 13:42:00,
2013-05-17 08:52:00,74.0,-99.9,30.03,SSE,167,13.0,15.0,-999,-99.99,,,-99.99,,2013-05-17 13:52:00,
2013-05-17 09:02:00,74.0,-99.9,30.03,SSE,168,13.0,17.0,-999,-99.99,,,-99.99,,2013-05-17 14:02:00,
2013-05-17 09:13:00,74.0,-99.9,30.03,SSE,167,13.0,15.0,-999,-99.99,,,-99.99,,2013-05-17 14:13:00,
2013-05-17 09:22:00,74.0,-99.9,30.03,North,-999,-999.0,-999.0,-999,-99.99,,,-99.99,,2013-05-17 14:22:00,
2013-05-17 09:34:00,74.0,-99.9,30.03,SSE,167,14.0,17.0,-999,-99.99,,,-99.99,,2013-05-17 14:34:00,
2013-05-17 09:43:00,74.0,-99.9,30.03,SSE,166,14.0,17.0,-999,-99.99,,,-99.99,,2013-05-17 14:43:00,
2013-05-17 09:53:00,74.0,-99.9,30.03,SSE,163,14.0,17.0,-999,-99.99,,,-99.99,,2013-05-17 14:53:00,
2013-05-17 10:03:00,74.0,-99.9,30.03,SSE,166,15.0,17.0,-999,-99.99,,,-99.99,,2013-05-17 15:03:00,
2013-05-17 10:14:00,74.0,-99.9,30.04,SSE,164,14.0,16.0,-999,-99.99,,,-99.99,,2013-05-17 15:14:00,
2013-05-17 10:25:00,74.0,-99.9,30.04,SSE,165,14.0,16.0,-999,-99.99,,,-99.99,,2013-05-17 15:25:00,
2013-05-17 10:37:00,75.0,-99.9,30.04,SSE,167,13.0,16.0,-999,-99.99,,,-99.99,,2013-05-17 15:37:00,
2013-05-17 10:48:00,75.0,-99.9,30.05,SSE,165,12.0,14.0,-999,-99.99,,,-99.99,,2013-05-17 15:48:00,
2013-05-17 10:57:00,75.0,-99.9,30.05,SSE,163,12.0,15.0,-999,-99.99,,,-99.99,,2013-05-17 15:57:00,
2013-05-17 11:08:00,75.0,-99.9,30.05,SSE,155,12.0,15.0,-999,-99.99,,,-99.99,,2013-05-17 16:08:00,
2013-05-17 11:14:00,75.0,-99.9,30.05,SSE,156,13.0,15.0,-999,-99.99,,,-99.99,,2013-05-17 16:14:00,
2013-05-17 11:26:00,75.0,-99.9,30.06,SSE,160,13.0,15.0,-999,-99.99,,,-99.99,,2013-05-17 16:26:00,
2013-05-17 11:37:00,75.0,-99.9,30.06,SSE,160,12.0,15.0,-999,-99.99,,,-99.99,,2013-05-17 16:37:00,
2013-05-17 11:50:00,75.0,-99.9,30.06,SSE,160,13.0,15.0,-999,-99.99,,,-99.99,,2013-05-17 16:50:00,
2013-05-17 11:56:00,75.0,-99.9,30.06,North,-999,-999.0,-999.0,-999,-99.99,,,-99.99,,2013-05-17 16:56:00,
2013-05-17 12:08:00,75.0,-99.9,30.06,SSE,156,12.0,14.0,-999,-99.99,,,-99.99,,2013-05-17 17:08:00,
2013-05-17 12:19:00,75.0,-99.9,30.06,SSE,158,11.0,13.0,-999,-99.99,,,-99.99,,2013-05-17 17:19:00,
2013-05-17 12:30:00,75.0,-99.9,30.06,SSE,157,12.0,14.0,-999,-99.99,,,-99.99,,2013-05-17 17:30:00,
2013-05-17 12:41:00,76.0,-99.9,30.06,SSE,167,12.0,14.0,-999,-99.99,,,-99.99,,2013-05-17 17:41:00,
2013-05-17 12:49:00,76.0,-99.9,30.06,SSE,158,11.0,14.0,-999,-99.99,,,-99.99,,2013-05-17 17:49:00,
2013-05-17 13:00:00,76.0,-99.9,30.06,North,-999,-999.0,-999.0,-999,-99.99,,,-99.99,,2013-05-17 18:00:00,
2013-05-17 13:09:00,76.0,-99.9,30.06,SSE,166,12.0,14.0,-999,-99.99,,,-99.99,,2013-05-17 18:09:00,
2013-05-17 13:20:00,76.0,-99.9,30.06,SSE,160,12.0,14.0,-999,-99.99,,,-99.99,,2013-05-17 18:20:00,
2013-05-17 13:30:00,76.0,-99.9,30.05,North,-999,-999.0,-999.0,-999,-99.99,,,-99.99,,2013-05-17 18:30:00,
2013-05-17 13:40:00,76.0,-99.9,30.05,SSE,168,11.0,13.0,-999,-99.99,,,-99.99,,2013-05-17 18:40:00,
2013-05-17 13:50:00,-999.0,-99.9,30.05,SSE,164,11.0,13.0,-999,-99.99,,,-99.99,,2013-05-17 18:50:00,
2013-05-17 14:01:00,76.0,-99.9,30.05,SSE,165,11.0,13.0,-999,-99.99,,,-99.99,,2013-05-17 19:01:00,
2013-05-17 14:10:00,76.0,-99.9,30.05,SSE,166,11.0,13.0,-999,-99.99,,,-99.99,,2013-05-17 19:10:00,
2013-05-17 14:20:00,76.0,-99.9,30.05,SSE,164,9.0,11.0,-999,-99.99,,,-99.99,,2013-05-17 19:20:00,
2013-05-17 14:30:00,76.0,-99.9,30.05,SSE,167,9.0,11.0,-999,-99.99,,,-99.99,,2013-05-17 19:30:00,
2013-05-17 14:41:00,76.0,-99.9,30.05,SSE,164,10.0,11.0,-999,-99.99,,,-99.99,,2013-05-17 19:41:00,
2013-05-17 14:51:00,76.0,-99.9,30.05,South,169,9.0,11.0,-999,-99.99,,,-99.99,,2013-05-17 19:51:00,
2013-05-17 15:01:00,76.0,-99.9,30.04,North,-999,-999.0,-999.0,-999,-99.99,,,-99.99,,2013-05-17 20:01:00,
2013-05-17 15:10:00,77.0,-99.9,30.04,SSE,166,10.0,12.0,-999,-99.99,,,-99.99,,2013-05-17 20:10:00,
2013-05-17 15:20:00,77.0,-99.9,30.04,SSE,161,11.0,13.0,-999,-99.99,,,-99.99,,2013-05-17 20:20:00,
2013-05-17 15:30:00,76.0,-99.9,30.03,North,-999,-999.0,-999.0,-999,-99.99,,,-99.99,,2013-05-17 20:30:00,
2013-05-17 15:41:00,77.0,-99.9,30.03,SE,145,11.0,15.0,-999,-99.99,,,-99.99,,2013-05-17 20:41:00,
2013-05-17 15:50:00,76.0,-99.9,30.03,SE,143,13.0,16.0,-999,-99.99,,,-99.99,,2013-05-17 20:50:00,
2013-05-17 15:58:00,76.0,-99.9,30.03,North,-999,-999.0,-999.0,-999,-99.99,,,-99.99,,2013-05-17 20:58:00,
2013-05-17 16:07:00,76.0,-99.9,30.03,SSE,153,13.0,15.0,-999,-99.99,,,-99.99,,2013-05-17 21:07:00,
2013-05-17 16:17:00,76.0,-99.9,30.02,SSE,151,13.0,15.0,-999,-99.99,,,-99.99,,2013-05-17 21:17:00,
2013-05-17 16:26:00,76.0,-99.9,30.02,SSE,156,14.0,16.0,-999,-99.99,,,-99.99,,2013-05-17 21:26:00,
2013-05-17 16:39:00,76.0,-99.9,30.02,SSE,155,14.0,17.0,-999,-99.99,,,-99.99,,2013-05-17 21:39:00,
2013-05-17 16:49:00,76.0,-99.9,30.02,SSE,153,15.0,17.0,-999,-99.99,,,-99.99,,2013-05-17 21:49:00,
2013-05-17 16:58:00,76.0,-99.9,30.02,SSE,148,14.0,18.0,-999,-99.99,,,-99.99,,2013-05-17 21:58:00,
2013-05-17 17:07:00,76.0,-99.9,30.01,SSE,155,15.0,17.0,-999,-99.99,,,-99.99,,2013-05-17 22:07:00,
2013-05-17 17:17:00,76.0,-99.9,30.01,SSE,150,14.0,17.0,-999,-99.99,,,-99.99,,2013-05-17 22:17:00,
2013-05-17 17:28:00,76.0,-99.9,30.01,North,-999,-999.0,-999.0,-999,-99.99,,,-99.99,,2013-05-17 22:28:00,
2013-05-17 17:38:00,76.0,-99.9,30.01,SSE,147,15.0,18.0,-999,-99.99,,,-99.99,,2013-05-17 22:38:00,
2013-05-17 17:47:00,76.0,-99.9,30.00,SSE,151,15.0,19.0,-999,-99.99,,,-99.99,,2013-05-17 22:47:00,
2013-05-17 17:55:00,76.0,-99.9,30.00,SSE,155,15.0,18.0,-999,-99.99,,,-99.99,,2013-05-17 22:55:00,
2013-05-17 18:04:00,76.0,-99.9,30.00,SSE,150,15.0,19.0,-999,-99.99,,,-99.99,,2013-05-17 23:04:00,
2013-05-17 18:13:00,76.0,-99.9,30.00,SSE,155,16.0,19.0,-999,-99.99,,,-99.99,,2013-05-17 23:13:00,
2013-05-17 18:23:00,76.0,-99.9,30.00,North,-999,-999.0,-999.0,-999,-99.99,,,-99.99,,2013-05-17 23:23:00,
2013-05-17 18:38:00,76.0,-99.9,30.00,SSE,153,15.0,18.0,-999,-99.99,,,-99.99,,2013-05-17 23:38:00,
2013-05-17 18:47:00,76.0,-99.9,30.00,SSE,154,14.0,18.0,-999,-99.99,,,-99.99,,2013-05-17 23:47:00,
2013-05-17 18:54:00,76.0,-99.9,29.99,SSE,153,15.0,19.0,-999,-99.99,,,-99.99,,2013-05-17 23:54:00,
2013-05-17 19:02:00,76.0,-99.9,30.00,SSE,155,15.0,18.0,-999,-99.99,,,-99.99,,2013-05-18 00:02:00,
2013-05-17 19:14:00,76.0,-99.9,30.00,SSE,154,14.0,18.0,-999,-99.99,,,-99.99,,2013-05-18 00:14:00,
2013-05-17 19:22:00,76.0,-99.9,30.00,SSE,157,13.0,16.0,-999,-99.99,,,-99.99,,2013-05-18 00:22:00,
2013-05-17 19:34:00,75.0,-99.9,30.00,SSE,150,14.0,16.0,-999,-99.99,,,-99.99,,2013-05-18 00:34:00,
2013-05-17 19:45:00,75.0,-99.9,30.00,SSE,158,14.0,17.0,-999,-99.99,,,-99.99,,2013-05-18 00:45:00,
2013-05-17 19:54:00,75.0,-99.9,30.00,SSE,157,14.0,19.0,-999,-99.99,,,-99.99,,2013-05-18 00:54:00,
2013-05-17 20:03:00,75.0,-99.9,30.00,SSE,164,15.0,18.0,-999,-99.99,,,-99.99,,2013-05-18 01:03:00,
2013-05-17 20:14:00,75.0,-99.9,30.00,SSE,159,16.0,18.0,-999,-99.99,,,-99.99,,2013-05-18 01:14:00,
2013-05-17 20:24:00,75.0,-99.9,30.00,North,-999,-999.0,-999.0,-999,-99.99,,,-99.99,,2013-05-18 01:24:00,
2013-05-17 20:32:00,75.0,-99.9,30.01,SSE,155,15.0,19.0,-999,-99.99,,,-99.99,,2013-05-18 01:32:00,
2013-05-17 20:43:00,75.0,-99.9,30.01,SSE,159,16.0,19.0,-999,-99.99,,,-99.99,,2013-05-18 01:43:00,
2013-05-17 20:52:00,75.0,-99.9,30.01,SSE,162,17.0,20.0,-999,-99.99,,,-99.99,,2013-05-18 01:52:00,
2013-05-17 21:03:00,75.0,-99.9,30.01,SSE,162,15.0,18.0,-999,-99.99,,,-99.99,,2013-05-18 02:03:00,
2013-05-17 21:12:00,75.0,-99.9,30.01,SSE,162,16.0,20.0,-999,-99.99,,,-99.99,,2013-05-18 02:12:00,
2013-05-17 21:23:00,75.0,-99.9,30.02,North,-999,-999.0,-999.0,-999,-99.99,,,-99.99,,2013-05-18 02:23:00,
2013-05-17 21:32:00,75.0,-99.9,30.02,SSE,162,16.0,20.0,-999,-99.99,,,-99.99,,2013-05-18 02:32:00,
2013-05-17 21:43:00,75.0,-99.9,30.02,SSE,164,16.0,20.0,-999,-99.99,,,-99.99,,2013-05-18 02:43:00,
2013-05-17 21:54:00,75.0,-99.9,30.02,North,-999,-999.0,-999.0,-999,-99.99,,,-99.99,,2013-05-18 02:54:00,
2013-05-17 22:03:00,75.0,-99.9,30.02,SSE,168,17.0,20.0,-999,-99.99,,,-99.99,,2013-05-18 03:03:00,
2013-05-17 22:12:00,74.0,-99.9,30.02,SSE,164,15.0,19.0,-999,-99.99,,,-99.99,,2013-05-18 03:12:00,
2013-05-17 22:23:00,75.0,-99.9,30.02,North,-999,-999.0,-999.0,-999,-99.99,,,-99.99,,2013-05-18 03:23:00,
2013-05-17 22:33:00,75.0,-99.9,30.02,SSE,166,15.0,18.0,-999,-99.99,,,-99.99,,2013-05-18 03:33:00,
2013-05-17 22:43:00,74.0,-99.9,30.03,SSE,163,16.0,19.0,-999,-99.99,,,-99.99,,2013-05-18 03:43:00,
2013-05-17 22:53:00,74.0,-99.9,30.03,North,-999,-999.0,-999.0,-999,-99.99,,,-99.99,,2013-05-18 03:53:00,
2013-05-17 23:03:00,74.0,-99.9,30.03,South,171,18.0,20.0,-999,-99.99,,,-99.99,,2013-05-18 04:03:00,
2013-05-17 23:13:00,74.0,-99.9,30.03,North,-999,-999.0,-999.0,-999,-99.99,,,-99.99,,2013-05-18 04:13:00,
2013-05-17 23:23:00,74.0,-99.9,30.03,North,-999,-999.0,-999.0,-999,-99.99,,,-99.99,,2013-05-18 04:23:00,
2013-05-17 23:33:00,74.0,-99.9,30.03,South,169,17.0,21.0,-999,-99.99,,,-99.99,,2013-05-18 04:33:00,
2013-05-17 23:43:00,74.0,-99.9,30.03,South,170,19.0,22.0,-999,-99.99,,,-99.99,,2013-05-18 04:43:00,
2013-05-17 23:53:00,74.0,-99.9,30.04,North,-999,-999.0,-999.0,-999,-99.99,,,-99.99,,2013-05-18 04:53:00,